Regional Weather Roundup
Issued by NWS

Home | Current Version | Previous Version | Graphics & Text | Print | Product List | Glossary Off
Versions: 1 2 3 4 5 6 7 8 9 10 11 12 13 14 15 16 17 18 19 20 21 22 23 24 25 26 27 28 29 30 31 32 33 34 35 36 37 38 39 40 41 42 43 44 45 46 47 48 49 50

000
ASUS43 KMKX 270311
RWRWI

WISCONSIN REGIONAL WEATHER ROUNDUP
NATIONAL WEATHER SERVICE MILWAUKEE/SULLIVAN WI
1000 PM CDT TUE AUG 26 2014

NOTE: "FAIR" INDICATES FEW OR NO CLOUDS BELOW 12,000 FEET WITH NO
SIGNIFICANT WEATHER AND/OR OBSTRUCTIONS TO VISIBILITY.

WIZ001-002-006>008-014>016-023>028-270400-
NORTHWEST WISCONSIN

CITY           SKY/WX    TMP DP  RH WIND       PRES   REMARKS
SUPERIOR ARPT  MOCLDY    57  51  81 CALM      30.16R
ASHLAND        PTCLDY    56  52  86 W3        30.16R
HAYWARD        MOCLDY    57  55  93 CALM      30.16S
SIREN          MOCLDY    59  55  87 CALM      30.16S
RICE LAKE      PTCLDY    62  55  78 CALM      30.17S
LADYSMITH      CLOUDY    61  55  81 CALM      30.17S
EAU CLAIRE     CLOUDY    64  57  78 CALM      30.14S
MENOMONIE      CLOUDY    65  56  72 W3        30.15S
NEW RICHMOND   MOCLDY    62  59  88 N5        30.16S
OSCEOLA        MOCLDY    62  56  79 N3        30.19R
$$

WIZ003>005-009-010-017-018-270400-
NORTH CENTRAL WISCONSIN

CITY           SKY/WX    TMP DP  RH WIND       PRES   REMARKS
WOODRUFF       PTCLDY    57  54  90 CALM      30.16R
RHINELANDER    CLEAR     56  51  84 N3        30.16R
EAGLE RIVER    PTCLDY    52  51  97 CALM      30.15S
LAND O LAKES   CLEAR     49  48  96 CALM      30.16S
PHILLIPS       MOCLDY    56  54  91 CALM      30.16R
TOMAHAWK       CLEAR     52  51  94 CALM      30.16S
MEDFORD        PTCLDY    57  55  92 CALM      30.16R
MERRILL        PTCLDY    59  55  86 CALM      30.15S
$$

WIZ029-030-035-036-043>047-270400-
CENTRAL WISCONSIN

CITY           SKY/WX    TMP DP  RH WIND       PRES   REMARKS
WAUSAU         PTCLDY    61  55  81 NW5       30.13R
MOSINEE        CLEAR     61  55  82 W5        30.16R
MARSHFIELD     PTCLDY    59  54  83 NW6       30.15S
STEVENS POINT  PTCLDY    61  53  73 NW3       30.15S
WAUPACA        PTCLDY    63  58  83 CALM      30.13S
WAUTOMA        PTCLDY    60  58  93 CALM      30.14R
WISC RAPIDS    PTCLDY    63  56  78 N5        30.15S
CAMP DOUGLAS   MOCLDY    59  59 100 W6        30.14S
$$

WIZ011>013-019>022-031-037>040-048>050-270400-
NORTHEAST WISCONSIN

CITY           SKY/WX    TMP DP  RH WIND       PRES   REMARKS
ANTIGO         CLEAR     58  54  86 W3        30.15S
STURGEON BAY   CLEAR     61  57  88 CALM      30.11S
GREEN BAY      CLEAR     60  58  92 W3        30.11R
MANITOWOC      CLEAR     63  59  87 CALM      30.11R
APPLETON       PTCLDY    61  54  77 W7        30.13R
CLINTONVILLE   CLEAR     61  55  82 W5        30.12S
OSHKOSH        CLEAR     63  57  81 W5        30.12R
$$

WIZ032>034-041-042-053>061-270400-
SOUTHWEST WISCONSIN

CITY           SKY/WX    TMP DP  RH WIND       PRES   REMARKS
LA CROSSE      CLOUDY    67  59  75 N3        30.14R
SPARTA         CLOUDY    60  58  92 CALM      30.16R
VIROQUA        FAIR      63  63  98 N3        30.15F
BOSCOBEL       MOCLDY    67  61  81 CALM      30.13S
PRAIRIE DU CHI CLOUDY    67  61  80 CALM      30.12S
PLATTEVILLE    FAIR      66  63  91 N5        30.15R
$$

WIZ056-057-062-063-064-067-068-270400-
SOUTH CENTRAL WISCONSIN

CITY           SKY/WX    TMP DP  RH WIND       PRES   REMARKS
BARABOO/DELLS  PTCLDY    64  58  79 CALM      30.14S
LONE ROCK      PTCLDY    68  61  78 W6        30.14R
WATERTOWN      CLEAR     60  60  98 CALM      30.12R
MADISON        CLEAR     63  60  90 N3        30.13R
MIDDLETON      FAIR      62  60  95 CALM      30.14R
MONROE         CLEAR     68  61  77 NW5       30.13S
JANESVILLE     CLEAR     66  64  94 CALM      30.11S
$$

WIZ051-052-058>065-066-070>072-270400-
SOUTHEAST WISCONSIN

CITY           SKY/WX    TMP DP  RH WIND       PRES   REMARKS
MILWAUKEE      PTCLDY    69  60  73 N3        30.12R
WAUKESHA       CLEAR     63  57  82 CALM      30.13S
MILWAUKEE/TIMM CLEAR     64  59  82 CALM      30.12R
RACINE         CLEAR     67  62  84 NW5       30.12R
BURLINGTON     FOG       60  60  99 CALM      30.12R VSB 1
KENOSHA        CLEAR     65  63  93 NW3       30.12R
FOND DU LAC    CLEAR     63  56  78 W6        30.13R
SHEBOYGAN      CLEAR     60  58  92 CALM      30.11R
WEST BEND      CLEAR     61  55  82 CALM      30.12R
JUNEAU         PTCLDY    64  57  76 NW5       30.14R
$$

LSZ147-162-270400-
LAKE SUPERIOR

STATION/POSITION TIME  TEMP    WIND        PRES    WAVE
                       AIR SEA DIR/SP/G            HT/PER
                 (UTC) (F)     (DEG/KT/KT) (MB)    (FT/S)
W MID LAKE BUOY  0250   58 55  310/  4/  4 1020.3R   1/ 5
DEVILS ISLAND    0300   61     340/  7/  8 1020.6R
PORT WING        0200   63     290/  4/  6 1020.7R
SAXON HARBOR     0200   59     190/  3/  3 1020.3S
$$

LMZ867-665-643>646-270400-
LAKE MICHIGAN

STATION/POSITION TIME  TEMP    WIND        PRES    WAVE
                       AIR SEA DIR/SP/G            HT/PER
                 (UTC) (F)     (DEG/KT/KT) (MB)    (FT/S)
N MID LAKE BUOY  0250   65 66  360/ 12/ 17 1019.3R   0
NORTHPORT PIER   0200   63     180/  3/  5 1019.0R
SISTER BAY       0211   63     150/  6/  8   N/A
ALGOMA LAKESHORE 0138             CALM       N/A
KEWAUNEE LAKESHO 0200   65     310/  1/  3 1018.3R
SHEBOYGAN LAKESH 0300   69 66  310/  6/  7 1019.6R
ATWATER BUOY     0300   70     310/  4/  6 1020.8R
MILWAUKEE LAKESH 0200   71      10/  3/  4   N/A
S MID LAKE BUOY  0250   69 69   40/  2/  2 1019.2R   1
KENOSHA   LAKESH 0300   70        CALM     1019.3R
$$

TC  - TEMPERATURE IN CELSIUS
VSB - VISIBILITY IN STATUTE MILES
WCI - WIND CHILL INDEX
HX  - HEAT INDEX




USA.gov is the U.S. government's official web portal to all federal, state and local government web resources and services.